Voltar ao catálogo

IRIDIUM 33 DEB

AtivoPO
NORAD 34833·DEBRIS·🇺🇸 United States

Lançado Sep 14, 1997 de Baikonur Cosmodrome

Loading…

Próximas Passagens (próximas 24 horas)

TLE

AtualizadoSource: Space-Track

Época: Sep 14, 2026, 07:44 UTC

1 34833U 97051MH  26257.32257358  .00001477  00000-0  34585-3 0  9997
2 34833  86.3892 292.0836 0016935 247.5010 235.8060 14.53879357917173

Acompanhe IRIDIUM 33 DEB em tempo real com AllMySat

Download on the App Store